Hourly Weather Rustaq

Today, 15 April, Thursday

Time Temperature Precipitation Wind Pressure Humidity
00:00 +30°C° 0 mm 2 mps 721 mmHg 23%
01:00 +30°C° 0 mm 2 mps 721 mmHg 24%
02:00 +29°C° 0 mm 2 mps 720 mmHg 23%
03:00 +29°C° 0 mm 2 mps 720 mmHg 23%
04:00 +29°C° 0 mm 3 mps 720 mmHg 23%
05:00 +30°C° 0 mm 3 mps 721 mmHg 22%
06:00 +30°C° 0 mm 2 mps 721 mmHg 21%
07:00 +31°C° 0 mm 2 mps 722 mmHg 21%
08:00 +34°C° 0 mm 2 mps 722 mmHg 18%
09:00 +35°C° 0 mm 2 mps 722 mmHg 16%
10:00 +37°C° 0 mm 2 mps 722 mmHg 14%
11:00 +38°C° 0 mm 3 mps 722 mmHg 13%
12:00 +39°C° 0 mm 3 mps 721 mmHg 13%
13:00 +41°C° 0 mm 4 mps 721 mmHg 12%
14:00 +41°C° 0 mm 4 mps 720 mmHg 13%
15:00 +40°C° 0 mm 4 mps 720 mmHg 13%
16:00 +40°C° 0 mm 4 mps 720 mmHg 14%
17:00 +37°C° 0 mm 3 mps 720 mmHg 16%
18:00 +36°C° 0 mm 2 mps 720 mmHg 18%
19:00 +33°C° 0 mm 1 mps 720 mmHg 19%
20:00 +33°C° 0 mm 1 mps 720 mmHg 20%
21:00 +32°C° 0 mm 1 mps 721 mmHg 20%
22:00 +32°C° 0 mm 1 mps 721 mmHg 20%
23:00 +31°C° 0 mm 2 mps 720 mmHg 20%

Tomorrow, 16 April, Friday

Time Temperature Precipitation Wind Pressure Humidity
00:00 +31°C° 0 mm 2 mps 720 mmHg 20%
01:00 +30°C° 0 mm 2 mps 720 mmHg 20%
02:00 +29°C° 0 mm 2 mps 720 mmHg 22%
03:00 +29°C° 0 mm 2 mps 720 mmHg 23%
04:00 +28°C° 0 mm 2 mps 720 mmHg 24%
05:00 +29°C° 0 mm 2 mps 720 mmHg 24%
06:00 +30°C° 0 mm 2 mps 721 mmHg 23%
07:00 +30°C° 0 mm 2 mps 721 mmHg 22%
08:00 +32°C° 0 mm 1 mps 722 mmHg 19%
09:00 +34°C° 0 mm 1 mps 722 mmHg 17%
10:00 +36°C° 0 mm 1 mps 722 mmHg 14%
11:00 +38°C° 0 mm 2 mps 721 mmHg 14%
12:00 +39°C° 0 mm 3 mps 721 mmHg 13%
13:00 +41°C° 0 mm 4 mps 721 mmHg 12%
14:00 +40°C° 0 mm 4 mps 720 mmHg 14%
15:00 +39°C° 0 mm 5 mps 720 mmHg 16%
16:00 +37°C° 0 mm 5 mps 720 mmHg 19%
17:00 +36°C° 0 mm 4 mps 720 mmHg 22%
18:00 +34°C° 0 mm 2 mps 721 mmHg 25%
19:00 +32°C° 0 mm 1 mps 721 mmHg 28%
20:00 +31°C° 0 mm 1 mps 721 mmHg 28%
21:00 +31°C° 0 mm 1 mps 721 mmHg 28%
22:00 +31°C° 0 mm 1 mps 721 mmHg 28%
23:00 +30°C° 0 mm 1 mps 721 mmHg 28%

Day after tomorrow, 17 April, Saturday

Time Temperature Precipitation Wind Pressure Humidity
00:00 +30°C° 0 mm 1 mps 720 mmHg 28%
01:00 +29°C° 0 mm 1 mps 720 mmHg 28%
02:00 +29°C° 0 mm 1 mps 720 mmHg 30%
03:00 +28°C° 0 mm 1 mps 720 mmHg 31%
04:00 +27°C° 0 mm 1 mps 720 mmHg 32%
05:00 +28°C° 0 mm 1 mps 721 mmHg 34%
06:00 +28°C° 0 mm 1 mps 721 mmHg 36%
07:00 +29°C° 0 mm 1 mps 722 mmHg 37%
08:00 +31°C° 0 mm 1 mps 722 mmHg 32%
09:00 +32°C° 0 mm 1 mps 722 mmHg 27%
10:00 +35°C° 0 mm 2 mps 723 mmHg 22%
11:00 +36°C° 0 mm 2 mps 722 mmHg 20%
12:00 +38°C° 0 mm 3 mps 722 mmHg 18%
13:00 +39°C° 0 mm 3 mps 721 mmHg 16%
14:00 +38°C° 0 mm 3 mps 721 mmHg 18%
15:00 +37°C° 0 mm 4 mps 721 mmHg 19%
16:00 +37°C° 0 mm 4 mps 721 mmHg 20%
17:00 +35°C° 0 mm 3 mps 721 mmHg 24%
18:00 +32°C° 0 mm 2 mps 722 mmHg 28%
19:00 +31°C° 0 mm 2 mps 722 mmHg 32%
20:00 +30°C° 0 mm 1 mps 722 mmHg 31%
21:00 +30°C° 0 mm 1 mps 723 mmHg 31%
22:00 +29°C° 0 mm 1 mps 723 mmHg 30%
23:00 +29°C° 0 mm 1 mps 722 mmHg 30%

18 April, Sunday

Time Temperature Precipitation Wind Pressure Humidity
00:00 +28°C° 0 mm 1 mps 722 mmHg 30%
01:00 +28°C° 0 mm 1 mps 722 mmHg 31%
02:00 +27°C° 0 mm 1 mps 722 mmHg 31%
03:00 +27°C° 0 mm 1 mps 722 mmHg 31%
04:00 +27°C° 0 mm 1 mps 722 mmHg 32%
05:00 +27°C° 0 mm 1 mps 722 mmHg 30%
06:00 +28°C° 0 mm 1 mps 723 mmHg 28%
07:00 +29°C° 0 mm 1 mps 723 mmHg 27%
08:00 +31°C° 0 mm 1 mps 723 mmHg 23%
09:00 +33°C° 0 mm 1 mps 724 mmHg 20%
10:00 +34°C° 0 mm 1 mps 724 mmHg 16%
11:00 +36°C° 0 mm 2 mps 723 mmHg 15%
12:00 +37°C° 0 mm 3 mps 723 mmHg 13%
13:00 +38°C° 0 mm 3 mps 722 mmHg 12%
14:00 +37°C° 0 mm 4 mps 722 mmHg 16%
15:00 +36°C° 0 mm 4 mps 722 mmHg 19%
16:00 +35°C° 0 mm 4 mps 722 mmHg 23%
17:00 +34°C° 0 mm 3 mps 722 mmHg 27%
18:00 +31°C° 0 mm 2 mps 722 mmHg 31%
19:00 +30°C° 0 mm 2 mps 722 mmHg 36%
20:00 +29°C° 0 mm 1 mps 722 mmHg 35%
21:00 +29°C° 0 mm 1 mps 723 mmHg 34%
22:00 +29°C° 0 mm 1 mps 723 mmHg 32%
23:00 +28°C° 0 mm 1 mps 722 mmHg 32%

19 April, Monday

Time Temperature Precipitation Wind Pressure Humidity
00:00 +28°C° 0 mm 1 mps 722 mmHg 31%
01:00 +27°C° 0 mm 1 mps 721 mmHg 30%
02:00 +27°C° 0 mm 1 mps 721 mmHg 30%
03:00 +26°C° 0 mm 1 mps 721 mmHg 29%
04:00 +26°C° 0 mm 1 mps 721 mmHg 28%
05:00 +27°C° 0 mm 1 mps 721 mmHg 25%
06:00 +28°C° 0 mm 1 mps 721 mmHg 21%
07:00 +30°C° 0 mm 1 mps 722 mmHg 18%
08:00 +31°C° 0 mm 2 mps 722 mmHg 15%
09:00 +34°C° 0 mm 3 mps 722 mmHg 12%
10:00 +36°C° 0 mm 4 mps 722 mmHg 9%
11:00 +37°C° 0 mm 5 mps 722 mmHg 9%
12:00 +39°C° 0 mm 5 mps 721 mmHg 9%
13:00 +40°C° 0 mm 6 mps 720 mmHg 9%
14:00 +39°C° 0 mm 6 mps 720 mmHg 10%
15:00 +37°C° 0 mm 5 mps 720 mmHg 11%
16:00 +37°C° 0 mm 5 mps 720 mmHg 12%
17:00 +35°C° 0 mm 4 mps 720 mmHg 14%
18:00 +33°C° 0 mm 3 mps 720 mmHg 15%
19:00 +31°C° 0 mm 1 mps 720 mmHg 17%
20:00 +30°C° 0 mm 1 mps 720 mmHg 18%
21:00 +29°C° 0 mm 1 mps 720 mmHg 19%
22:00 +28°C° 0 mm 1 mps 720 mmHg 20%
23:00 +28°C° 0 mm 1 mps 720 mmHg 19%

20 April, Tuesday

Time Temperature Precipitation Wind Pressure Humidity
00:00 +28°C° 0 mm 2 mps 720 mmHg 18%
01:00 +28°C° 0 mm 2 mps 719 mmHg 17%
02:00 +27°C° 0 mm 2 mps 719 mmHg 17%
03:00 +27°C° 0 mm 2 mps 719 mmHg 17%
04:00 +26°C° 0 mm 2 mps 718 mmHg 17%
05:00 +27°C° 0 mm 1 mps 719 mmHg 17%
06:00 +28°C° 0 mm 1 mps 719 mmHg 16%
07:00 +29°C° 0 mm 1 mps 720 mmHg 16%
08:00 +30°C° 0 mm 1 mps 720 mmHg 15%
09:00 +32°C° 0 mm 1 mps 720 mmHg 13%
10:00 +35°C° 0 mm 2 mps 721 mmHg 12%
11:00 +36°C° 0 mm 2 mps 720 mmHg 10%
12:00 +37°C° 0 mm 3 mps 720 mmHg 9%
13:00 +38°C° 0 mm 4 mps 720 mmHg 8%
14:00 +39°C° 0 mm 5 mps 719 mmHg 9%
15:00 +39°C° 0 mm 5 mps 719 mmHg 10%
16:00 +39°C° 0 mm 5 mps 719 mmHg 11%
17:00 +36°C° 0 mm 4 mps 719 mmHg 13%
18:00 +32°C° 0 mm 2 mps 719 mmHg 16%
19:00 +30°C° 0 mm 1 mps 719 mmHg 18%
20:00 +30°C° 0 mm 1 mps 719 mmHg 18%
21:00 +30°C° 0 mm 1 mps 720 mmHg 18%
22:00 +29°C° 0 mm 1 mps 720 mmHg 18%
23:00 +29°C° 0 mm 1 mps 720 mmHg 18%
Show more